FENGYUN 1C DEB

Satellite information

Favourite Embed

Satellite Type and Status

DEBRISIN ORBIT

Key statistics

Satellite FENGYUN 1C DEB at a glance.

Uptime

9553

Days in orbit

Revolutions

≈ 14.3

Per day

Orbit

SSO

Sun Synchronous Orbit

Inclination

98.4

Latest

Satellite identification and parameters

Extended collection of information and parameters for FENGYUN 1C DEB.

Object identification

Identified? True

Debris? True

Object name: FENGYUN 1C DEB

International designator: 1999-025CRB

Object number (NORAD): 32109

Object ID (CCSDS): 32109

Country: PEOPLES REPUBLIC OF CHINA (PRC)

Current information (Y/N): Y

RCS size: SMALL

Orbital parameters

Period: 100.464 minutes

Inclination: 98.3823 deg

SMA: 7158.716 km

Apoapsis: 930.311 km

Periapsis: 630.85 km

RAAN: 69.1853 deg

Eccentricy: 0.0209158

Argument of periapsis: 75.186 deg

Mean anomaly: 287.2393 deg

Mean motion: 14.33342898 rev/day

Mean motion (dot): 0.00001111 rev/day2

B* drag term: 0.00032913 1/REarth

Two-line elements (TLE)

Creation date: July 3, 2025, 5:26 p.m.

Reference frame: TEME

Reference center: EARTH

Epoch: July 3, 2025, 10:51 a.m. UTC

TLE line 0: 0 FENGYUN 1C DEB

TLE line 1: 1 32109U 99025CRB 25184.45277285 .00001111 00000-0 32913-3 0 9995

TLE line 2: 2 32109 98.3823 69.1853 0209158 75.1860 287.2393 14.33342898625635

Live tracking on map

Real-time ground track for satellite FENGYUN 1C DEB.

In-orbit conjunctions

A list of the most updated potential collisions computed for object FENGYUN 1C DEB.

Target Orbit TCA Probability of collision Miss distance Type
COSMOS 1275 DEB LEO 2025-05-18 19:01:38 0.0001021139 73.0 (m) DEBRIS
CZ-6A DEB SSO 2024-06-03 18:21:09 0.0001355242 72.0 (m) DEBRIS

Associated space launch

Chinese polar orbiting meteorological satellite

FENGYUN 1C DEB was lifted into orbit during the mission ‘Long March 4B | Feng Yun 1C’, on board a Long March 4B space rocket.

The launch took place on May 10, 1999, 1:33 a.m. from Launch Complex 7.

For more information about the launch, click the button.

Launch to space Long March 4B | Feng Yun 1C
Long March 4B | Feng Yun 1C

Agency: N/A

Status: Launch Successful

Launch date: May 10, 1999, 1:33 a.m. UTC

Rocket: Long March 4B

Launch pad: Launch Complex 7

Location: Taiyuan Satellite Launch Center, People's Republic of China

...

Latest news about this satellite

There are no fresh news available about this satellite. Check back as we update our databases every day.


Newsletter sign-up

Weekly statistics, charts and insights to help you stay on top of the space industry.